Location: Alfortville
(48.8058°N, 2.4204°E)
Time: 13:02:49
(UTC+00:00)

Lacrosse 4 Rocket - Pass Details

Date: 24 October 2021
Orbit: 537 x 619 km, 68.0° (Epoch: 05 December)

Event Time Altitude Azimuth Distance (km) Brightness Sun altitude
Rises 19:04:49 0° 317° (NW) 2,818 5.7 -23.8°
Reaches altitude 10° 19:07:20 10° 303° (WNW) 1,928 5.0 -24.3°
Maximum altitude 19:10:50 24° 249° (WSW) 1,250 3.7 -24.8°
Drops below altitude 10° 19:14:22 10° 196° (SSW) 1,952 4.1 -25.4°
Enters shadow 19:14:55 - 192° (SSW) 2,135 4.3 -25.5°
